KD0KHX-10 Weather Reports


time (UTC)temp
C
wind
direction
speed
KPH
gust
KPH
rain 1hr
cm
rain 24hr
cm
rain mn
cm
humidity
%
barometer
mb
20260906203218 31 160 24.1 41.8 0.00 0.20 0.20 49 1009.4
20260906202503 31 161 25.7 41.8 0.00 0.20 0.20 50 1009.4
20260906202217 31 165 25.7 41.8 0.00 0.20 0.20 49 1009.4
20260906201503 31 154 25.7 51.5 0.00 0.20 0.20 49 1009.6
20260906201217 31 156 24.1 51.5 0.00 0.20 0.20 50 1009.5
20260906200503 31 163 24.1 41.8 0.00 0.20 0.20 50 1009.5
20260906200217 31 164 24.1 43.5 0.00 0.20 0.20 50 1009.6
20260906195716 31 164 24.1 45.1 0.00 0.20 0.20 50 1009.8
20260906195003 31 162 24.1 45.1 0.00 0.20 0.20 49 1009.5
20260906194503 31 159 24.1 43.5 0.00 0.20 0.20 49 1009.8
20260906194003 31 156 25.7 48.3 0.00 0.20 0.20 49 1009.8
20260906193503 31 158 25.7 48.3 0.00 0.20 0.20 48 1010.1
20260906193003 31 163 24.1 48.3 0.00 0.20 0.20 47 1009.8
20260906192718 31 164 24.1 48.3 0.00 0.20 0.20 47 1009.9
20260906192003 31 158 24.1 38.6 0.00 0.20 0.20 47 1010.0
20260906191503 31 163 24.1 38.6 0.00 0.20 0.20 47 1010.1
20260906191003 31 170 24.1 45.1 0.00 0.20 0.20 47 1009.9
20260906190933 31 169 22.5 45.1 0.00 0.20 0.20 47 1009.9
20260906190003 31 164 19.3 37.0 0.00 0.20 0.20 50 1010.3
20260906185718 30 165 19.3 37.0 0.00 0.20 0.20 52 1010.2
20260906185003 30 165 20.9 38.6 0.00 0.20 0.20 52 1010.3
20260906184503 30 159 19.3 37.0 0.00 0.20 0.20 52 1010.4
20260906184217 30 157 20.9 46.7 0.00 0.20 0.20 52 1010.3
20260906183718 30 155 22.5 46.7 0.00 0.20 0.20 55 1010.4
20260906183217 30 159 24.1 43.5 0.00 0.20 0.20 55 1010.4
20260906182718 29 162 22.5 38.6 0.00 0.20 0.20 55 1010.4
20260906182003 29 166 20.9 38.6 0.00 0.20 0.20 55 1010.5
20260906181933 29 166 20.9 38.6 0.00 0.20 0.20 55 1010.5
20260906181217 28 163 20.9 35.4 0.00 0.20 0.20 58 1010.7
20260906180503 28 162 19.3 35.4 0.00 0.20 0.20 60 1011.0
20260906180432 28 160 19.3 35.4 0.00 0.20 0.20 59 1010.9
20260906175718 28 163 20.9 35.4 0.00 0.20 0.20 60 1011.0
20260906175432 27 157 22.5 35.4 0.00 0.20 0.20 61 1011.2
20260906174718 27 151 20.9 38.6 0.00 0.20 0.20 61 1011.1
20260906174003 27 149 17.7 32.2 0.00 0.20 0.20 61 1011.4
20260906173503 27 155 19.3 33.8 0.00 0.20 0.20 62 1011.4
20260906173003 27 160 20.9 33.8 0.00 0.20 0.20 62 1011.4
20260906172503 27 155 16.1 32.2 0.00 0.20 0.20 63 1011.4
20260906172003 27 152 16.1 32.2 0.00 0.20 0.20 65 1011.5
20260906171503 26 149 17.7 35.4 0.00 0.20 0.20 66 1011.7
20260906171003 26 147 16.1 35.4 0.00 0.20 0.20 67 1011.8
20260906170503 26 149 17.7 35.4 0.00 0.20 0.20 70 1011.9
20260906170431 26 148 19.3 35.4 0.00 0.20 0.20 70 1011.9
20260906165717 25 147 19.3 37.0 0.00 0.20 0.20 71 1011.9
20260906165003 25 140 16.1 33.8 0.00 0.20 0.20 70 1012.2
20260906164932 25 141 16.1 33.8 0.00 0.20 0.20 70 1012.2
20260906164003 25 148 16.1 33.8 0.00 0.20 0.20 72 1012.3
20260906163932 25 148 16.1 33.8 0.00 0.20 0.20 72 1012.4
20260906163003 25 128 9.7 29.0 0.00 0.20 0.20 72 1012.4
20260906162932 25 126 9.7 25.7 0.00 0.20 0.20 72 1012.4
20260906162003 25 125 8.0 29.0 0.00 0.20 0.20 75 1012.3
20260906161503 25 119 8.0 19.3 0.00 0.20 0.20 75 1012.4
20260906161003 25 124 9.7 19.3 0.00 0.20 0.20 77 1012.5
20260906160503 25 129 8.0 22.5 0.00 0.20 0.20 77 1012.6
20260906160433 25 128 8.0 22.5 0.00 0.20 0.20 77 1012.6
20260906155503 24 123 9.7 20.9 0.00 0.20 0.20 78 1012.4
20260906155003 24 125 8.0 20.9 0.00 0.20 0.20 79 1012.4
20260906154503 24 125 6.4 19.3 0.00 0.20 0.20 80 1012.5
20260906154003 23 103 6.4 22.5 0.00 0.20 0.20 82 1012.4
20260906153717 23 94 6.4 22.5 0.00 0.20 0.20 83 1012.4
20260906153003 23 94 6.4 27.4 0.00 0.20 0.20 84 1012.5
20260906152503 23 101 4.8 19.3 0.00 0.20 0.20 84 1012.5
20260906152003 23 113 3.2 16.1 0.00 0.20 0.20 85 1012.6
20260906151503 23 125 4.8 17.7 0.00 0.20 0.20 86 1012.6
20260906151003 22 129 4.8 17.7 0.00 0.20 0.20 87 1012.5
20260906150934 22 129 4.8 16.1 0.00 0.20 0.20 87 1012.4
20260906150008 22 123 6.4 16.1 0.00 0.20 0.20 90 1012.3
20260906145716 22 121 6.4 17.7 0.00 0.20 0.20 91 1012.4
20260906145003 21 123 6.4 17.7 0.00 0.20 0.20 92 1012.3
20260906144503 21 112 6.4 17.7 0.00 0.20 0.20 93 1012.1
20260906144217 21 105 6.4 19.3 0.00 0.20 0.20 93 1012.1
20260906143503 21 111 6.4 19.3 0.00 0.20 0.20 93 1012.0
20260906143003 21 116 4.8 22.5 0.00 0.20 0.20 94 1012.0
20260906142716 21 118 6.4 22.5 0.00 0.20 0.20 94 1012.0
20260906142432 21 122 6.4 22.5 0.00 0.20 0.20 94 1012.2
20260906141718 20 136 8.0 27.4 0.00 0.20 0.20 94 1012.0
20260906141003 20 144 9.7 27.4 0.00 0.20 0.20 94 1012.1
20260906140503 20 136 11.3 27.4 0.00 0.20 0.20 94 1012.2
20260906140003 20 127 9.7 27.4 0.00 0.20 0.20 94 1012.1
20260906135716 20 124 6.4 19.3 0.00 0.20 0.20 94 1012.2
20260906135003 20 139 6.4 16.1 0.00 0.20 0.20 94 1012.4
20260906134503 20 150 6.4 24.1 0.00 0.20 0.20 94 1012.2
20260906134003 20 136 8.0 24.1 0.00 0.20 0.20 94 1012.0
20260906133503 20 108 6.4 19.3 0.08 0.20 0.20 94 1012.0
20260906133003 20 106 6.4 19.3 0.13 0.20 0.20 94 1011.7
20260906132503 20 133 4.8 12.9 0.15 0.20 0.20 94 1012.1
20260906132217 20 145 3.2 12.9 0.15 0.20 0.20 94 1012.2
20260906131718 20 150 1.6 12.9 0.15 0.20 0.20 94 1011.9
20260906131003 20 154 3.2 12.9 0.20 0.20 0.20 94 1011.8
20260906130503 20 150 4.8 12.9 0.20 0.20 0.20 94 1011.7
20260906130003 20 141 4.8 12.9 0.20 0.20 0.20 94 1011.5
20260906125503 20 127 3.2 17.7 0.20 0.20 0.20 94 1011.3
20260906125217 20 116 3.2 17.7 0.20 0.20 0.20 94 1011.0
20260906124503 20 85 6.4 17.7 0.20 0.20 0.20 94 1011.1
20260906124217 20 80 8.0 17.7 0.20 0.20 0.20 94 1011.2
20260906123503 20 72 9.7 19.3 0.13 0.13 0.13 94 1011.0
20260906123003 20 80 8.0 16.1 0.08 0.08 0.08 94 1011.3
20260906122503 20 87 3.2 11.3 0.05 0.05 0.05 94 1011.7
20260906122003 19 94 1.6 9.7 0.05 0.05 0.05 93 1011.8
20260906121503 19 94 3.2 9.7 0.03 0.03 0.03 93 1011.6
20260906121003 19 95 0.0 4.8 0.00 0.00 0.00 93 1011.9
20260906120503 19 95 0.0 3.2 0.00 0.00 0.00 93 1011.8
20260906120003 19 95 1.6 6.4 0.00 0.00 0.00 93 1011.8
20260906115503 19 94 1.6 6.4 0.00 0.00 0.00 93 1011.7
20260906115216 19 92 3.2 9.7 0.00 0.00 0.00 93 1011.8
20260906114503 19 92 3.2 9.7 0.00 0.00 0.00 93 1011.5
20260906114216 20 94 3.2 11.3 0.00 0.00 0.00 93 1011.6
20260906113717 20 90 4.8 12.9 0.00 0.00 0.00 93 1011.7
20260906113003 20 91 4.8 12.9 0.00 0.00 0.00 93 1011.7
20260906112503 20 92 4.8 12.9 0.00 0.00 0.00 93 1011.6
20260906112216 20 94 4.8 12.9 0.00 0.00 0.00 93 1011.7
20260906111503 20 97 4.8 11.3 0.00 0.00 0.00 93 1011.7
20260906111003 20 85 4.8 12.9 0.00 0.00 0.00 92 1011.7
20260906110503 20 71 6.4 12.9 0.00 0.00 0.00 92 1011.7
20260906110433 20 70 6.4 8.0 0.00 0.00 0.00 92 1011.7
20260906105717 20 52 6.4 14.5 0.00 0.00 0.00 92 1011.6
20260906105003 20 52 6.4 11.3 0.00 0.00 0.00 92 1011.4
20260906104503 20 52 6.4 12.9 0.00 0.00 0.00 92 1011.5
20260906104003 20 43 8.0 14.5 0.00 0.00 0.00 91 1011.3
20260906103503 20 42 8.0 19.3 0.00 0.00 0.00 91 1011.2
20260906103003 20 53 8.0 19.3 0.00 0.00 0.00 90 1011.2
20260906102503 20 46 8.0 19.3 0.00 0.00 0.00 90 1011.3
20260906102218 20 38 9.7 19.3 0.00 0.00 0.00 90 1011.2
20260906101503 20 33 11.3 19.3 0.00 0.00 0.00 89 1011.2
20260906101218 20 35 11.3 19.3 0.00 0.00 0.00 88 1011.0
20260906100717 20 30 12.9 24.1 0.00 0.00 0.00 88 1010.7
20260906100003 20 23 19.3 29.0 0.00 0.00 0.00 86 1010.8
20260906095503 21 24 16.1 29.0 0.00 0.00 0.00 85 1010.8
20260906095003 21 28 14.5 25.7 0.00 0.00 0.00 83 1010.6
20260906094503 22 11 16.1 30.6 0.00 0.00 0.00 80 1010.7
20260906094003 23 341 12.9 30.6 0.00 0.00 0.00 75 1010.8
20260906093503 23 315 8.0 22.5 0.00 0.00 0.00 72 1010.7
20260906093003 23 311 8.0 19.3 0.00 0.00 0.00 72 1010.4
20260906092503 24 299 8.0 19.3 0.00 0.00 0.00 70 1010.3
20260906092003 24 275 6.4 16.1 0.00 0.00 0.00 70 1010.2
20260906091503 24 240 4.8 11.3 0.00 0.00 0.00 67 1009.8
20260906091003 24 221 4.8 11.3 0.00 0.00 0.00 68 1009.6
20260906090503 24 208 4.8 12.9 0.00 0.00 0.00 68 1009.6
20260906090432 24 208 4.8 12.9 0.00 0.00 0.00 68 1009.6
20260906085718 25 194 8.0 16.1 0.00 0.00 0.00 66 1009.4
20260906085003 25 185 11.3 20.9 0.00 0.00 0.00 64 1009.3
20260906084503 25 182 11.3 24.1 0.00 0.00 0.00 64 1009.3
20260906084008 25 181 12.9 24.1 0.00 0.00 0.00 64 1009.4
20260906083503 25 182 12.9 24.1 0.00 0.00 0.00 63 1009.4
20260906083003 25 181 14.5 24.1 0.00 0.00 0.00 63 1009.3
20260906082718 25 181 12.9 24.1 0.00 0.00 0.00 63 1009.3
20260906082003 25 179 9.7 16.1 0.00 0.00 0.00 63 1009.4
20260906081503 25 178 9.7 17.7 0.00 0.00 0.00 63 1009.5
20260906081003 25 179 9.7 17.7 0.00 0.00 0.00 62 1009.4
20260906080503 25 178 12.9 22.5 0.00 0.00 0.00 62 1009.4
20260906080432 25 178 12.9 22.5 0.00 0.00 0.00 62 1009.4
20260906075503 25 178 14.5 24.1 0.00 0.00 0.00 62 1009.5
20260906075432 25 178 14.5 24.1 0.00 0.00 0.00 62 1009.5
20260906074503 25 172 14.5 20.9 0.00 0.00 0.00 63 1009.5
20260906074003 25 165 12.9 20.9 0.00 0.00 0.00 63 1009.7
20260906073503 25 162 12.9 20.9 0.00 0.00 0.00 63 1009.7
20260906073003 25 158 12.9 24.1 0.00 0.00 0.00 62 1009.7
20260906072718 25 158 12.9 24.1 0.00 0.00 0.00 62 1009.8
20260906072003 25 158 12.9 24.1 0.00 0.00 0.00 61 1009.7
20260906071503 25 166 12.9 24.1 0.00 0.00 0.00 62 1009.7
20260906071003 25 173 11.3 24.1 0.00 0.00 0.00 63 1009.7
20260906070933 25 173 11.3 24.1 0.00 0.00 0.00 63 1009.7
20260906070003 25 167 11.3 19.3 0.00 0.00 0.00 65 1009.7
20260906065503 25 164 11.3 19.3 0.00 0.00 0.00 65 1009.7
20260906065003 25 158 9.7 17.7 0.00 0.00 0.00 65 1009.8
20260906064503 24 157 11.3 17.7 0.00 0.00 0.00 66 1009.9
20260906064003 24 159 11.3 20.9 0.00 0.00 0.00 66 1010.0
20260906063503 24 160 9.7 20.9 0.00 0.00 0.00 67 1010.1
20260906063003 24 165 9.7 16.1 0.00 0.00 0.00 67 1010.0
20260906062717 24 166 8.0 16.1 0.00 0.00 0.00 67 1010.1
20260906062216 24 159 8.0 14.5 0.00 0.00 0.00 67 1010.1
20260906061503 24 153 8.0 14.5 0.00 0.00 0.00 67 1010.2
20260906061003 24 151 8.0 16.1 0.00 0.00 0.00 67 1010.1
20260906060717 24 150 8.0 16.1 0.00 0.00 0.00 67 1010.0
20260906060003 24 155 9.7 16.1 0.00 0.00 0.00 67 1010.1
20260906055717 24 157 9.7 16.1 0.00 0.00 0.00 67 1010.0
20260906055003 24 159 9.7 16.1 0.00 0.00 0.00 67 1010.2
20260906054503 24 157 9.7 17.7 0.00 0.00 0.00 67 1010.0
20260906054218 24 159 9.7 17.7 0.00 0.00 0.00 67 1009.9
20260906053503 24 167 9.7 16.1 0.00 0.00 0.00 66 1009.7
20260906053003 24 160 11.3 19.3 0.00 0.00 0.00 66 1009.7
20260906052503 24 153 11.3 19.3 0.00 0.00 0.00 66 1009.5
20260906052008 24 147 9.7 19.3 0.00 0.00 0.00 66 1009.6
20260906051503 24 152 9.7 17.7 0.00 0.00 0.00 66 1009.5
20260906051433 24 152 9.7 17.7 0.00 0.00 0.00 66 1009.5
20260906050503 25 151 11.3 17.7 0.00 0.00 0.00 65 1009.5
20260906050433 25 150 11.3 17.7 0.00 0.00 0.00 65 1009.5
20260906045503 25 143 8.0 14.5 0.00 0.00 0.00 64 1009.7
20260906045003 25 141 8.0 14.5 0.00 0.00 0.00 64 1009.7
20260906044503 25 145 8.0 14.5 0.00 0.00 0.00 64 1009.7
20260906044003 25 153 8.0 12.9 0.00 0.00 0.00 63 1009.6
20260906043503 25 157 6.4 12.9 0.00 0.00 0.00 63 1009.7
20260906043003 25 153 6.4 12.9 0.00 0.00 0.00 63 1009.7
20260906042503 25 152 6.4 16.1 0.00 0.00 0.00 63 1009.8
20260906042003 25 157 8.0 16.1 0.00 0.00 0.00 62 1009.6
20260906041503 25 153 8.0 12.9 0.00 0.00 0.00 62 1009.6
20260906041217 25 152 8.0 12.9 0.00 0.00 0.00 62 1009.5
20260906040503 25 158 9.7 17.7 0.00 0.00 0.00 61 1009.6
20260906040003 25 156 9.7 17.7 0.00 0.00 0.00 61 1009.4
20260906035503 25 153 9.7 17.7 0.00 0.00 0.00 60 1009.4
20260906035433 25 153 9.7 17.7 0.00 0.00 0.00 60 1009.4
20260906034503 26 160 11.3 22.5 0.00 0.00 0.00 60 1009.7
20260906034003 26 162 12.9 22.5 0.00 0.00 0.00 59 1009.3
20260906033716 26 161 11.3 19.3 0.00 0.00 0.00 59 1009.4
20260906033003 26 154 11.3 17.7 0.00 0.00 0.00 59 1009.4
20260906032716 26 150 11.3 17.7 0.00 0.00 0.00 59 1009.4
20260906032003 26 152 9.7 17.7 0.00 0.00 0.00 58 1009.5
20260906031503 26 149 9.7 19.3 0.00 0.00 0.00 58 1009.4
20260906031217 26 149 9.7 19.3 0.00 0.00 0.00 58 1009.4
20260906030718 26 152 11.3 19.3 0.00 0.00 0.00 58 1009.4
20260906030003 26 151 9.7 22.5 0.00 0.00 0.00 58 1009.4
20260906025718 26 152 9.7 22.5 0.00 0.00 0.00 58 1009.4
20260906025003 26 156 12.9 22.5 0.00 0.00 0.00 57 1009.3
20260906024503 26 155 12.9 22.5 0.00 0.00 0.00 57 1009.2
20260906024217 27 153 12.9 22.5 0.00 0.00 0.00 57 1009.2
20260906023718 27 153 11.3 22.5 0.00 0.00 0.00 57 1009.3
20260906023432 27 151 11.3 22.5 0.00 0.00 0.00 57 1009.2
20260906022503 27 155 12.9 24.1 0.00 0.00 0.00 57 1009.2
20260906022217 27 156 11.3 20.9 0.00 0.00 0.00 57 1009.2
20260906021503 27 148 9.7 17.7 0.00 0.00 0.00 56 1009.1
20260906021003 27 138 8.0 17.7 0.00 0.00 0.00 55 1008.9
20260906020718 27 136 9.7 16.1 0.00 0.00 0.00 55 1008.9
20260906020003 28 138 8.0 14.5 0.00 0.00 0.00 54 1009.0
20260906015718 28 138 8.0 14.5 0.00 0.00 0.00 54 1008.9
20260906015432 28 136 8.0 16.1 0.00 0.00 0.00 54 1008.9
20260906014503 28 144 9.7 20.9 0.00 0.00 0.00 53 1008.9
20260906014003 28 145 11.3 24.1 0.00 0.00 0.00 52 1008.9
20260906013933 28 144 11.3 24.1 0.00 0.00 0.00 52 1008.9
20260906013003 28 146 11.3 19.3 0.00 0.00 0.00 51 1008.8
20260906012503 29 142 8.0 19.3 0.00 0.00 0.00 51 1008.8
20260906012003 29 144 6.4 16.1 0.00 0.00 0.00 50 1008.6
20260906011503 30 144 8.0 22.5 0.00 0.00 0.00 49 1008.6
20260906011003 30 144 9.7 22.5 0.00 0.00 0.00 49 1008.6
20260906010717 30 144 11.3 24.1 0.00 0.00 0.00 48 1008.5
20260906010003 30 140 14.5 29.0 0.00 0.00 0.00 48 1008.2
20260906005503 30 143 14.5 22.5 0.00 0.00 0.00 47 1008.1
20260906005003 30 147 16.1 29.0 0.00 0.00 0.00 47 1008.1
20260906004503 31 148 16.1 29.0 0.00 0.00 0.00 46 1008.1
20260906004216 31 148 16.1 27.4 0.00 0.00 0.00 46 1007.9
20260906003503 31 150 16.1 29.0 0.00 0.00 0.00 45 1007.9
20260906003433 31 150 16.1 29.0 0.00 0.00 0.00 45 1008.0
20260906002503 32 154 17.7 38.6 0.00 0.00 0.00 42 1007.9
20260906002433 32 154 16.1 38.6 0.00 0.00 0.00 41 1007.9
20260906001503 33 165 12.9 25.7 0.00 0.00 0.00 36 1007.7
20260906001003 33 163 14.5 27.4 0.00 0.00 0.00 35 1007.7
20260906000717 33 161 16.1 29.0 0.00 0.00 0.00 35 1007.6
20260906000003 34 162 17.7 33.8 0.00 0.00 0.00 34 1007.6
20260905235717 34 162 19.3 33.8 0.00 0.00 0.00 34 1007.8
20260905235003 34 161 17.7 33.8 0.00 0.00 0.00 34 1007.8
20260905234503 34 159 17.7 30.6 0.00 0.00 0.00 34 1007.7
20260905234218 34 157 19.3 30.6 0.00 0.00 0.00 34 1007.6
20260905233717 34 157 19.3 30.6 0.00 0.00 0.00 34 1007.6
20260905233003 34 164 14.5 32.2 0.00 0.00 0.00 34 1007.6
20260905232503 34 167 17.7 32.2 0.00 0.00 0.00 35 1007.7
20260905232003 34 168 20.9 37.0 0.00 0.00 0.00 35 1007.6
20260905231503 34 163 19.3 37.0 0.00 0.00 0.00 35 1007.5
20260905231003 34 159 16.1 29.0 0.00 0.00 0.00 36 1007.3
20260905230503 34 153 16.1 29.0 0.00 0.00 0.00 36 1007.4
20260905230003 34 143 12.9 27.4 0.00 0.00 0.00 36 1007.4
20260905225716 34 141 14.5 27.4 0.00 0.00 0.00 36 1007.4
20260905225217 34 143 14.5 27.4 0.00 0.00 0.00 36 1007.3
20260905224503 35 147 11.3 25.7 0.00 0.00 0.00 35 1007.3
20260905224003 35 149 9.7 24.1 0.00 0.00 0.00 35 1007.3
20260905223716 35 146 9.7 22.5 0.00 0.00 0.00 36 1007.3
20260905223003 35 144 12.9 25.7 0.00 0.00 0.00 35 1007.4
20260905222716 35 141 12.9 25.7 0.00 0.00 0.00 35 1007.3
20260905222217 35 141 12.9 24.1 0.00 0.00 0.00 35 1007.3
20260905221503 35 146 12.9 27.4 0.00 0.00 0.00 35 1007.3
20260905221008 35 135 14.5 29.0 0.00 0.00 0.00 35 1007.4
20260905220503 35 133 14.5 32.2 0.00 0.00 0.00 35 1007.5
20260905220003 35 137 12.9 29.0 0.00 0.00 0.00 35 1007.5
20260905215503 35 143 12.9 29.0 0.00 0.00 0.00 34 1007.6
20260905215432 35 144 14.5 29.0 0.00 0.00 0.00 34 1007.6
20260905214718 35 149 14.5 27.4 0.00 0.00 0.00 34 1007.7
20260905214003 35 139 14.5 27.4 0.00 0.00 0.00 33 1007.7
20260905213718 35 142 14.5 33.8 0.00 0.00 0.00 34 1007.7
20260905213003 35 160 16.1 33.8 0.00 0.00 0.00 34 1007.9
20260905212503 35 159 14.5 27.4 0.00 0.00 0.00 34 1008.0
20260905212003 35 157 14.5 27.4 0.00 0.00 0.00 33 1007.9
20260905211718 35 155 16.1 30.6 0.00 0.00 0.00 33 1007.9
20260905211003 35 160 19.3 32.2 0.00 0.00 0.00 33 1008.2
20260905210503 35 163 19.3 41.8 0.00 0.00 0.00 34 1008.3
20260905210003 35 159 17.7 41.8 0.00 0.00 0.00 33 1008.2
20260905205503 35 153 16.1 29.0 0.00 0.00 0.00 32 1008.4
20260905205003 35 154 17.7 29.0 0.00 0.00 0.00 33 1008.4
20260905204503 35 155 17.7 37.0 0.00 0.00 0.00 33 1008.6
20260905204003 35 155 20.9 40.2 0.00 0.00 0.00 33 1008.6
20260905203503 35 151 17.7 40.2 0.00 0.00 0.00 32 1008.6